Change the Weather History Date:

Friday, June 21, 2013

  Actual Average Record
Temperature  
Mean Temperature 78 °F -  
Max Temperature 87 °F 88 °F 100 °F (1939)
Min Temperature 69 °F 71 °F 61 °F (1966)
Cooling Degree Days 12    
Growing Degree Days 28 (Base 50)    
Moisture  
Dew Point 67 °F    
Average Humidity 73    
Maximum Humidity 87    
Minimum Humidity 51    
Precipitation  
Precipitation 0.00 in - - ()
Sea Level Pressure  
Sea Level Pressure 30.14 in    
Wind  
Wind Speed 7 mph (NE)    
Max Wind Speed 12 mph    
Max Gust Speed -    
Visibility 10 miles    
Events      
Averages and records for this station are not official NWS values.
T = Trace of Precipitation, MM = Missing Value Source: NWS Daily Summary

Daily Weather History Graph

Daily Weather History Graph

Search for Another Location

Airport or City:

Trip Planner

Search our weather history database for the weather conditions in past years. The results will help you decide how hot, cold, wet, or windy it might be!

Date:

Astronomy

Jun. 21, 2013 Rise Set
Actual Time 6:16 AM EDT 8:33 PM EDT
Civil Twilight 5:47 AM EDT 9:01 PM EDT
Nautical Twilight 5:12 AM EDT 9:36 PM EDT
Astronomical Twilight 4:34 AM EDT 10:14 PM EDT
Moon 6:46 PM EDT (6/21) 4:25 AM EDT (6/21)
Length of Visible Light 15h 14m
Length of Day
14h 17m
Waxing Gibbous, 95% of the Moon is Illuminated
Jun 21
Waxing Gibbous
Jun 23
Full
Jun 30
Last Quarter
Jul 8
New
Jul 15
First Quarter

Hourly Weather History & Observations

Time (EDT) Temp. Heat Index Dew Point Humidity Pressure Visibility Wind Dir Wind Speed Gust Speed Precip Events Conditions
12:56 AM 72.0 °F - 66.0 °F 81% 30.15 in 10.0 mi NNE 5.8 mph - N/A   Clear
1:56 AM 70.0 °F - 64.9 °F 84% 30.15 in 10.0 mi NNE 5.8 mph - N/A   Clear
2:56 AM 70.0 °F - 64.9 °F 84% 30.13 in 10.0 mi North 5.8 mph - N/A   Clear
3:56 AM 70.0 °F - 66.0 °F 87% 30.12 in 10.0 mi NNE 4.6 mph - N/A   Clear
4:24 AM 70.0 °F - 66.0 °F 87% 30.11 in 10.0 mi NNE 8.1 mph - N/A   Mostly Cloudy
4:35 AM 70.0 °F - 64.9 °F 84% 30.12 in 10.0 mi NNE 6.9 mph - N/A   Scattered Clouds
4:43 AM 70.0 °F - 64.9 °F 84% 30.12 in 10.0 mi NNE 9.2 mph - N/A   Mostly Cloudy
4:54 AM 69.8 °F - 64.4 °F 83% 30.12 in 10.0 mi NNE 9.2 mph - N/A   Scattered Clouds
4:56 AM 70.0 °F - 64.9 °F 84% 30.12 in 10.0 mi NNE 10.4 mph - N/A   Scattered Clouds
5:56 AM 70.0 °F - 64.0 °F 81% 30.14 in 10.0 mi NE 8.1 mph - N/A   Scattered Clouds
6:56 AM 71.1 °F - 64.0 °F 78% 30.14 in 10.0 mi NE 9.2 mph - N/A   Mostly Cloudy
7:56 AM 73.0 °F - 64.9 °F 76% 30.16 in 10.0 mi NE 8.1 mph - N/A   Scattered Clouds
8:56 AM 73.9 °F - 66.0 °F 76% 30.18 in 10.0 mi NE 8.1 mph - N/A   Mostly Cloudy
9:56 AM 77.0 °F - 66.0 °F 69% 30.18 in 10.0 mi NE 11.5 mph - N/A   Mostly Cloudy
10:56 AM 81.0 °F 83.0 °F 66.0 °F 60% 30.19 in 10.0 mi NNE 11.5 mph - N/A   Mostly Cloudy
11:56 AM 82.9 °F 85.4 °F 66.9 °F 58% 30.18 in 10.0 mi NNE 9.2 mph - N/A   Mostly Cloudy
12:56 PM 84.0 °F 86.5 °F 66.9 °F 56% 30.17 in 10.0 mi ENE 6.9 mph - N/A   Scattered Clouds
1:56 PM 84.9 °F 87.1 °F 66.0 °F 53% 30.17 in 10.0 mi ENE 9.2 mph - N/A   Scattered Clouds
2:56 PM 84.9 °F 87.1 °F 66.0 °F 53% 30.16 in 10.0 mi East 6.9 mph - N/A   Scattered Clouds
3:56 PM 86.0 °F 88.2 °F 66.0 °F 51% 30.14 in 10.0 mi East 8.1 mph - N/A   Mostly Cloudy
4:56 PM 84.0 °F 86.5 °F 66.9 °F 56% 30.13 in 10.0 mi NE 6.9 mph - N/A   Mostly Cloudy
5:56 PM 82.9 °F 88.0 °F 72.0 °F 69% 30.12 in 10.0 mi SE 5.8 mph - N/A   Mostly Cloudy
6:56 PM 82.0 °F 86.7 °F 72.0 °F 71% 30.12 in 10.0 mi SE 8.1 mph - N/A   Partly Cloudy
7:56 PM 80.1 °F 83.8 °F 72.0 °F 76% 30.13 in 10.0 mi ESE 6.9 mph - N/A   Mostly Cloudy
8:56 PM 80.1 °F 84.2 °F 73.0 °F 79% 30.14 in 10.0 mi SE 4.6 mph - N/A   Overcast
9:56 PM 80.1 °F 83.8 °F 72.0 °F 76% 30.15 in 10.0 mi SE 5.8 mph - N/A   Overcast
10:56 PM 79.0 °F - 72.0 °F 79% 30.15 in 10.0 mi Calm Calm - N/A   Overcast
11:56 PM 79.0 °F - 72.0 °F 79% 30.14 in 10.0 mi East 3.5 mph - N/A   Overcast